Weather History for Monroe, MI

Change the Weather History Date:

Thursday, May 9, 2013

  Actual Average Record
Temperature  
Mean Temperature 64 °F -  
Max Temperature 78 °F 67 °F 90 °F (1979)
Min Temperature 50 °F 46 °F 26 °F (1976)
Degree Days  
Heating Degree Days 1    
Growing Degree Days 14 (Base 50)    
Moisture  
Dew Point 52 °F    
Average Humidity 64    
Maximum Humidity 100    
Minimum Humidity 32    
Precipitation  
Precipitation 0.00 in - - ()
Sea Level Pressure  
Sea Level Pressure 29.94 in    
Wind  
Wind Speed 2 mph (SE)    
Max Wind Speed 9 mph    
Max Gust Speed -    
Visibility 8 miles    
Events Fog    
Averages and records for this station are not official NWS values.
T = Trace of Precipitation, MM = Missing Value Source: NWS Daily Summary

Daily Weather History Graph

Daily Weather History Graph

Search for Another Location

Airport:

Trip Planner

Search our weather history database for the weather conditions in past years. The results will help you decide how hot, cold, wet, or windy it might be!

Date:

Astronomy

May. 09, 2013 Rise Set
Actual Time 6:19 AM EDT 8:41 PM EDT
Civil Twilight 5:48 AM EDT 9:12 PM EDT
Nautical Twilight 5:09 AM EDT 9:51 PM EDT
Astronomical Twilight 4:26 AM EDT 10:34 PM EDT
Moon 6:03 AM EDT (5/9) 8:35 PM EDT (5/9)
Length of Visible Light 15h 24m
Length of Day
14h 21m
Waning Crescent, 0% of the Moon is Illuminated
May 9
Waning Crescent
May 9
New
May 18
First Quarter
May 25
Full
May 31
Last Quarter

Hourly Weather History & Observations

Time (EDT) Temp. Dew Point Humidity Pressure Visibility Wind Dir Wind Speed Gust Speed Precip Events Conditions
12:13 AM 57.2 °F 55.4 °F 94% 29.97 in 10.0 mi ESE 4.6 mph - N/A   Clear
12:33 AM 57.2 °F 55.4 °F 94% 29.97 in 10.0 mi Calm Calm - N/A   Clear
12:53 AM 59.0 °F 55.4 °F 88% 29.97 in 10.0 mi Calm Calm - N/A   Clear
1:13 AM 57.2 °F 55.4 °F 94% 29.96 in 10.0 mi Calm Calm - N/A   Clear
1:33 AM 57.2 °F 55.4 °F 94% 29.95 in 10.0 mi Calm Calm - N/A   Clear
2:14 AM 57.2 °F 55.4 °F 94% 29.94 in 7.0 mi Calm Calm - N/A   Clear
2:34 AM 55.4 °F 53.6 °F 94% 29.93 in 7.0 mi Calm Calm - N/A   Clear
2:54 AM 55.4 °F 53.6 °F 94% 29.93 in 0.8 mi Calm Calm - N/A   Mist
3:14 AM 53.6 °F 53.6 °F 100% 29.92 in 5.0 mi Calm Calm - N/A   Clear
3:34 AM 55.4 °F 53.6 °F 94% 29.92 in 7.0 mi Calm Calm - N/A   Clear
3:54 AM 55.4 °F 53.6 °F 94% 29.92 in 4.0 mi Calm Calm - N/A   Clear
4:14 AM 53.6 °F 51.8 °F 94% 29.92 in 4.0 mi Calm Calm - N/A   Clear
4:34 AM 53.6 °F 51.8 °F 94% 29.92 in 0.8 mi Calm Calm - N/A   Mostly Cloudy
4:55 AM 53.6 °F 53.6 °F 100% 29.92 in 2.0 mi North 3.5 mph - N/A   Mostly Cloudy
5:15 AM 53.6 °F 51.8 °F 94% 29.92 in 1.2 mi Calm Calm - N/A   Mostly Cloudy
5:35 AM 51.8 °F 51.8 °F 100% 29.93 in 1.0 mi Calm Calm - N/A   Mostly Cloudy
5:55 AM 51.8 °F 51.8 °F 100% 29.93 in 0.5 mi Calm Calm - N/A Fog Fog
6:15 AM 51.8 °F 50.0 °F 94% 29.94 in 0.2 mi Calm Calm - N/A Fog Fog
6:35 AM 50.0 °F 50.0 °F 100% 29.94 in 0.2 mi Calm Calm - N/A Fog Fog
6:55 AM 50.0 °F 50.0 °F 100% 29.95 in 0.2 mi Calm Calm - N/A Fog Fog
7:15 AM 51.8 °F 51.8 °F 100% 29.95 in 2.5 mi Calm Calm - N/A   Scattered Clouds
8:16 AM 59.0 °F 55.4 °F 88% 29.96 in 10.0 mi Calm Calm - N/A   Clear
8:36 AM 60.8 °F 55.4 °F 82% 29.96 in 10.0 mi Calm Calm - N/A   Clear
8:56 AM 62.6 °F 55.4 °F 77% 29.96 in 10.0 mi Calm Calm - N/A   Clear
9:16 AM 64.4 °F 57.2 °F 77% 29.97 in 10.0 mi NNW 3.5 mph - N/A   Clear
9:36 AM 66.2 °F 57.2 °F 73% 29.97 in 10.0 mi WNW 3.5 mph - N/A   Clear
9:56 AM 68.0 °F 57.2 °F 68% 29.96 in 10.0 mi North 3.5 mph - N/A   Clear
10:16 AM 69.8 °F 57.2 °F 64% 29.96 in 10.0 mi Calm Calm - N/A   Clear
10:36 AM 71.6 °F 57.2 °F 60% 29.96 in 10.0 mi NNW 3.5 mph - N/A   Clear
10:51 AM 71.6 °F 55.4 °F 57% 29.96 in 10.0 mi Calm Calm - N/A   Clear
11:11 AM 73.4 °F 55.4 °F 53% 29.96 in 10.0 mi Calm Calm - N/A   Clear
11:32 AM 75.2 °F 55.4 °F 50% 29.97 in 10.0 mi Calm Calm - N/A   Clear
11:52 AM 75.2 °F 55.4 °F 50% 29.97 in 10.0 mi Calm Calm - N/A   Clear
12:12 PM 75.2 °F 55.4 °F 50% 29.97 in 10.0 mi Calm Calm - N/A   Clear
12:32 PM 77.0 °F 55.4 °F 47% 29.97 in 10.0 mi Calm Calm - N/A   Clear
12:52 PM 77.0 °F 57.2 °F 50% 29.97 in 10.0 mi SE 4.6 mph - N/A   Clear
1:12 PM 78.8 °F 57.2 °F 47% 29.96 in 10.0 mi SE 8.1 mph - N/A   Clear
1:32 PM 78.8 °F 55.4 °F 44% 29.96 in 10.0 mi SSE 8.1 mph - N/A   Clear
1:52 PM 78.8 °F 53.6 °F 42% 29.96 in 10.0 mi SE 4.6 mph - N/A   Clear
2:12 PM 78.8 °F 51.8 °F 39% 29.96 in 10.0 mi SSE 9.2 mph - N/A   Clear
2:33 PM 77.0 °F 53.6 °F 44% 29.95 in 10.0 mi SSE 6.9 mph - N/A   Clear
2:53 PM 77.0 °F 51.8 °F 41% 29.95 in 10.0 mi SSE 8.1 mph - N/A   Clear
3:13 PM 77.0 °F 50.0 °F 39% 29.94 in 10.0 mi ESE 8.1 mph - N/A   Clear
3:33 PM 75.2 °F 48.2 °F 38% 29.94 in 10.0 mi SE 6.9 mph - N/A   Scattered Clouds
3:53 PM 77.0 °F 48.2 °F 36% 29.93 in 10.0 mi ESE 8.1 mph - N/A   Clear
4:13 PM 77.0 °F 48.2 °F 36% 29.93 in 10.0 mi East 9.2 mph - N/A   Clear
4:33 PM 78.8 °F 48.2 °F 34% 29.92 in 10.0 mi ESE 8.1 mph - N/A   Clear
4:53 PM 77.0 °F 48.2 °F 36% 29.92 in 10.0 mi ESE 6.9 mph - N/A   Clear
5:13 PM 77.0 °F 48.2 °F 36% 29.91 in 10.0 mi ESE 8.1 mph - N/A   Clear
5:33 PM 75.2 °F 48.2 °F 38% 29.91 in 10.0 mi SE 8.1 mph - N/A   Clear
5:54 PM 77.0 °F 44.6 °F 32% 29.91 in 10.0 mi ESE 8.1 mph - N/A   Clear
6:14 PM 77.0 °F 46.4 °F 34% 29.90 in 10.0 mi East 8.1 mph - N/A   Clear
6:34 PM 75.2 °F 44.6 °F 34% 29.91 in 10.0 mi ESE 6.9 mph - N/A   Clear
6:54 PM 75.2 °F 44.6 °F 34% 29.91 in 10.0 mi ESE 5.8 mph - N/A   Clear
7:14 PM 73.4 °F 46.4 °F 38% 29.90 in 10.0 mi SE 5.8 mph - N/A   Clear
7:34 PM 73.4 °F 46.4 °F 38% 29.91 in 10.0 mi SE 8.1 mph - N/A   Clear
7:54 PM 71.6 °F 48.2 °F 43% 29.91 in 10.0 mi SE 4.6 mph - N/A   Clear
8:14 PM 71.6 °F 48.2 °F 43% 29.90 in 10.0 mi SE 5.8 mph - N/A   Clear
8:34 PM 69.8 °F 50.0 °F 49% 29.91 in 10.0 mi SE 5.8 mph - N/A   Clear
8:55 PM 69.8 °F 46.4 °F 43% 29.90 in 10.0 mi SE 5.8 mph - N/A   Clear
9:15 PM 69.8 °F 50.0 °F 49% 29.91 in 10.0 mi SE 6.9 mph - N/A   Mostly Cloudy
9:55 PM 69.8 °F 51.8 °F 53% 29.92 in 10.0 mi Calm Calm - N/A   Scattered Clouds
10:15 PM 69.8 °F 50.0 °F 49% 29.91 in 10.0 mi Calm Calm - N/A   Clear
10:35 PM 68.0 °F 51.8 °F 56% 29.91 in 10.0 mi Calm Calm - N/A   Clear
10:55 PM 66.2 °F 51.8 °F 60% 29.91 in 10.0 mi Calm Calm - N/A   Mostly Cloudy
11:15 PM 66.2 °F 53.6 °F 64% 29.91 in 10.0 mi Calm Calm - N/A   Scattered Clouds
11:56 PM 66.2 °F 55.4 °F 68% 29.91 in 10.0 mi SSW 4.6 mph - N/A   Mostly Cloudy